Location: Decatur(IL)
(39.8400°N, 88.9550°W)
Time: 22:44:50
(UTC-05:00)

Cosmos 1953 - Visible Passes

Search period start: 31 July 2014 00:00
Search period end: 10 August 2014 00:00
Orbit: 551 x 570 km, 82.5° (Epoch: 30 July)

Date Brightness Start Highest point End Pass type
(mag) Time Alt. Az. Time Alt. Az. Time Alt. Az.
31 Jul 3.6 02:33:48 41° NE 02:33:48 41° NE 02:36:46 10° NNE visible
31 Jul 4.7 04:09:45 11° WNW 04:09:45 11° WNW 04:11:05 10° NW visible
01 Aug 3.6 02:33:05 41° NNE 02:33:05 41° NNE 02:35:54 10° NNE visible
02 Aug 3.7 02:32:21 39° NNE 02:32:21 39° NNE 02:35:01 10° N visible
03 Aug 3.8 02:31:37 35° N 02:31:37 35° N 02:34:06 10° N visible
04 Aug 4.0 02:30:52 32° N 02:30:52 32° N 02:33:09 10° N visible
05 Aug 4.2 02:30:05 28° NNW 02:30:05 28° NNW 02:32:11 10° N visible
06 Aug 4.4 02:29:18 25° NNW 02:29:18 25° NNW 02:31:12 10° N visible
07 Aug 4.6 02:28:30 22° NNW 02:28:30 22° NNW 02:30:11 10° N visible
08 Aug 5.4 00:51:45 10° NE 00:51:45 10° NE 00:51:45 10° NE visible
08 Aug 4.7 02:27:41 19° NNW 02:27:41 19° NNW 02:29:08 10° NNW visible
09 Aug 5.4 00:50:55 11° NE 00:50:55 11° NE 00:51:07 10° NE visible
09 Aug 4.9 02:26:52 16° NNW 02:26:52 16° NNW 02:28:02 10° NNW visible
